DW4535 Weather Reports


Display with metric or nautical units.
time (UTC)temp
F
wind
direction
speed
MPH
gust
MPH
rain 1hr
in
rain 24hr
in
rain mn
in
humidity
%
barometer
mb
20260506221543 0 285 1.0 5.0 0.00 0.00 0.00 1022.8
20260506220041 0 283 1.0 4.0 0.00 0.00 0.00 1022.8
20260506214538 0 272 1.0 5.0 0.00 0.00 0.00 1022.7
20260506213031 0 273 2.0 6.0 0.00 0.00 0.00 1022.6
20260506211526 0 274 1.0 4.0 0.00 0.00 0.00 1022.6
20260506210022 0 273 1.0 7.0 0.00 0.00 0.00 1022.6
20260506204517 0 271 1.0 5.0 0.00 0.00 0.00 1022.5
20260506203020 0 277 1.0 4.0 0.00 0.00 0.00 1022.5
20260506201509 0 278 2.0 5.0 0.00 0.00 0.00 1022.4
20260506200004 0 278 2.0 4.0 0.00 0.00 0.00 1022.1
20260506194607 0 278 1.0 5.0 0.00 0.00 0.00 1022.0
20260506193058 0 279 2.0 6.0 0.00 0.00 0.00 1022.1
20260506191601 0 279 2.0 6.0 0.00 0.00 0.00 1022.1
20260506190045 0 283 2.0 5.0 0.00 0.00 0.00 1022.0
20260506184540 0 287 2.0 5.0 0.00 0.00 0.00 1021.9
20260506183035 0 290 2.0 5.0 0.00 0.00 0.00 1021.8
20260506181531 0 288 2.0 5.0 0.00 0.00 0.00 1021.8
20260506180027 0 280 3.0 6.0 0.00 0.00 0.00 1021.7
20260506174522 0 271 2.0 5.0 0.00 0.00 0.00 1021.6
20260506173017 0 273 1.0 4.0 0.00 0.00 0.00 1021.6
20260506171517 0 274 1.0 6.0 0.00 0.00 0.00 1021.5
20260506170009 0 275 1.0 5.0 0.00 0.00 0.00 1021.5
20260506164504 0 276 2.0 6.0 0.00 0.00 0.00 1021.4
20260506163105 0 0.0 0.0 0.00 0.00 0.00 1021.3
20260506161558 0 0.0 0.0 0.00 0.00 0.00 1021.1
20260506160050 0 0.0 0.0 0.00 0.00 0.00 1020.9
20260506154548 0 0.0 0.0 0.00 0.00 0.00 1020.6
20260506153041 0 0.0 0.0 0.00 0.00 0.00 1020.8
20260506151537 0 0.0 0.0 0.00 0.00 0.00 1020.9
20260506150032 0 0.0 0.0 0.00 0.00 0.00 1020.7
20260506144528 0 0.0 0.0 0.00 0.00 0.00 1020.0
20260506143027 0 0.0 0.0 0.00 0.00 0.00 1020.3
20260506141523 0 0.0 0.0 0.00 0.00 0.00 1019.8
20260506140016 0 0.0 0.0 0.00 0.00 0.00 1019.9
20260506134510 0 0.0 0.0 0.00 0.00 0.00 1020.0
20260506133006 0 0.0 0.0 0.00 0.00 0.00 1020.2
20260506131506 0 0.0 0.0 0.00 0.00 0.00 1019.9
20260506130057 0 0.0 0.0 0.00 0.00 0.00 1020.1
20260506124553 0 0.0 0.0 0.00 0.00 0.00 1019.7
20260506123049 0 0.0 0.0 0.00 0.00 0.00 1019.7
20260506121544 0 0.0 0.0 0.00 0.00 0.00 1019.7
20260506120040 0 0.0 0.0 0.00 0.00 0.00 1019.5
20260506114535 0 0.0 0.0 0.00 0.00 0.00 1019.4
20260506113031 0 0.0 0.0 0.00 0.00 0.00 1019.4
20260506111527 0 0.0 0.0 0.00 0.00 0.00 1019.3
20260506110023 0 0.0 0.0 0.00 0.00 0.00 1019.1
20260506104518 0 0.0 0.0 0.00 0.00 0.00 1019.1
20260506103014 0 0.0 0.0 0.00 0.00 0.00 1019.0
20260506101510 0 0.0 0.0 0.00 0.00 0.00 1018.9
20260506100006 0 266 1.0 5.0 0.00 0.00 0.00 1018.9
20260506094501 0 266 1.0 5.0 0.00 0.00 0.00 1018.8
20260506093058 0 266 0.0 2.0 0.00 0.00 0.00 1018.7
20260506091553 0 266 0.0 3.0 0.00 0.00 0.00 1018.7
20260506090049 0 266 1.0 3.0 0.00 0.00 0.00 1018.6
20260506084548 0 266 0.0 1.0 0.00 0.00 0.00 1018.5
20260506083041 0 266 0.0 3.0 0.00 0.00 0.00 1018.5
20260506081535 0 266 0.0 4.0 0.00 0.00 0.00 1018.4
20260506073022 0 266 0.0 0.0 0.00 0.00 0.00 1018.0
20260506071517 0 266 0.0 0.0 0.00 0.00 0.00 1017.9
20260506061611 0 266 0.0 0.0 0.00 0.00 0.00 1017.6
20260506044540 0 266 0.0 2.0 0.00 0.00 0.00 1017.5
20260506043028 0 266 1.0 3.0 0.00 0.00 0.00 1017.4
20260506041537 0 266 2.0 4.0 0.00 0.00 0.00 1017.4
20260506040019 0 266 0.0 3.0 0.00 0.00 0.00 1017.0
20260506034514 0 266 1.0 3.0 0.00 0.00 0.00 1016.9
20260506033010 0 266 1.0 4.0 0.00 0.00 0.00 1016.7
20260506031507 0 266 1.0 3.0 0.00 0.00 0.00 1016.7
20260506030104 0 266 1.0 4.0 0.00 0.00 0.00 1016.6
20260506024614 0 266 0.0 3.0 0.00 0.00 0.00 1016.5
20260506023057 0 266 0.0 4.0 0.00 0.00 0.00 1016.4
20260506021555 0 266 1.0 4.0 0.00 0.00 0.00 1016.3
20260506020042 0 266 1.0 4.0 0.00 0.00 0.00 1016.5
20260506014537 0 266 1.0 3.0 0.00 0.00 0.00 1016.3
20260506013037 0 266 1.0 4.0 0.00 0.00 0.00 1016.4
20260506011548 0 266 2.0 4.0 0.00 0.00 0.00 1016.4
20260506010026 0 266 1.0 4.0 0.00 0.00 0.00 1016.3
20260506004533 0 266 2.0 4.0 0.00 0.00 0.00 1016.3
20260506003015 0 266 2.0 4.0 0.00 0.00 0.00 1016.4
20260506001510 0 266 0.0 3.0 0.00 0.00 0.00 1016.5
20260506000005 0 266 1.0 4.0 0.00 0.00 0.00 1016.6
20260505234502 0 266 1.0 3.0 0.00 0.00 0.00 1016.7
20260505233056 0 264 1.0 4.0 0.00 0.00 0.00 1016.7
20260505231555 0 265 2.0 5.0 0.00 0.00 0.00 1016.8
20260505230048 0 270 2.0 5.0 0.00 0.00 0.00 1016.8
20260505224543 0 273 2.0 5.0 0.00 0.00 0.00 1016.8
20260505223039 0 275 2.0 4.0 0.00 0.00 0.00 1016.9